GW3570 Weather Reports


Display with metric or nautical units.
time (UTC)temp
F
wind
direction
speed
MPH
gust
MPH
rain 1hr
in
rain 24hr
in
rain mn
in
humidity
%
barometer
mb
20260504015953 71 203 1.0 2.0 0.00 0.00 0.00 52 1009.9
20260504015449 71 211 1.0 1.0 0.00 0.00 0.00 49 1010.0
20260504014945 71 165 2.0 2.0 0.00 0.00 0.00 49 1009.8
20260504014441 71 187 0.0 1.0 0.00 0.00 0.00 52 1009.8
20260504013938 71 175 0.0 0.0 0.00 0.00 0.00 50 1009.8
20260504013437 71 169 0.0 0.0 0.00 0.00 0.00 52 1009.6
20260504012932 71 167 0.0 0.0 0.00 0.00 0.00 50 1009.9
20260504012430 72 184 0.0 0.0 0.00 0.00 0.00 51 1009.9
20260504011927 73 184 0.0 0.0 0.00 0.00 0.00 49 1009.8
20260504011424 72 198 0.0 0.0 0.00 0.00 0.00 48 1010.0
20260504010920 72 195 0.0 0.0 0.00 0.00 0.00 50 1009.9
20260504010416 73 205 0.0 0.0 0.00 0.00 0.00 48 1009.8
20260504005913 73 206 2.0 3.0 0.00 0.00 0.00 48 1010.0
20260504005409 74 196 2.0 2.0 0.00 0.00 0.00 46 1010.0
20260504004907 73 207 2.0 2.0 0.00 0.00 0.00 45 1009.9
20260504004405 74 206 1.0 1.0 0.00 0.00 0.00 50 1009.8
20260504003901 75 236 2.0 2.0 0.00 0.00 0.00 48 1009.9
20260504003358 75 248 3.0 3.0 0.00 0.00 0.00 46 1009.8
20260504002854 75 252 5.0 6.0 0.00 0.00 0.00 42 1009.8
20260504002351 76 256 6.0 7.0 0.00 0.00 0.00 44 1009.9
20260504001849 76 237 5.0 6.0 0.00 0.00 0.00 42 1010.1
20260504001346 77 239 3.0 3.0 0.00 0.00 0.00 44 1010.1
20260504000843 77 247 3.0 3.0 0.00 0.00 0.00 41 1010.0
20260504000340 77 224 6.0 7.0 0.00 0.00 0.00 38 1010.1
20260503235837 78 204 3.0 5.0 0.00 0.00 0.00 41 1009.9
20260503235335 78 238 4.0 5.0 0.00 0.00 0.00 39 1010.0
20260503234832 78 244 5.0 7.0 0.00 0.00 0.00 40 1009.8
20260503234330 78 243 5.0 6.0 0.00 0.00 0.00 40 1009.9
20260503233828 78 208 4.0 5.0 0.00 0.00 0.00 38 1010.1
20260503233324 78 239 3.0 3.0 0.00 0.00 0.00 41 1010.1
20260503232820 79 244 7.0 8.0 0.00 0.00 0.00 37 1009.9
20260503232317 79 256 6.0 7.0 0.00 0.00 0.00 39 1010.0
20260503231815 79 256 8.0 9.0 0.00 0.00 0.00 36 1010.1
20260503231312 79 230 7.0 8.0 0.00 0.00 0.00 38 1010.1
20260503230808 79 204 7.0 9.0 0.00 0.00 0.00 36 1010.1
20260503230305 79 247 9.0 11.0 0.00 0.00 0.00 38 1009.9
20260503225803 79 222 4.0 5.0 0.00 0.00 0.00 40 1009.9
20260503225258 80 234 5.0 6.0 0.00 0.00 0.00 35 1010.2
20260503224755 80 246 5.0 6.0 0.00 0.00 0.00 38 1010.1
20260503224253 80 267 5.0 6.0 0.00 0.00 0.00 36 1010.1
20260503223750 80 312 7.0 9.0 0.00 0.00 0.00 36 1010.2
20260503223248 80 220 4.0 5.0 0.00 0.00 0.00 40 1010.0
20260503222744 81 239 5.0 8.0 0.00 0.00 0.00 38 1010.0
20260503222242 81 323 8.0 11.0 0.00 0.00 0.00 32 1009.9
20260503221740 81 210 6.0 7.0 0.00 0.00 0.00 37 1010.0
20260503221237 80 271 9.0 10.0 0.00 0.00 0.00 34 1010.0
20260503220733 81 262 5.0 5.0 0.00 0.00 0.00 42 1009.9
20260503220231 80 226 6.0 7.0 0.00 0.00 0.00 39 1010.1
20260503215727 80 227 6.0 7.0 0.00 0.00 0.00 35 1010.1
20260503215225 81 257 7.0 8.0 0.00 0.00 0.00 36 1009.9
20260503214723 81 113 6.0 8.0 0.00 0.00 0.00 39 1010.2
20260503214219 80 247 5.0 6.0 0.00 0.00 0.00 39 1010.1
20260503213717 80 221 5.0 6.0 0.00 0.00 0.00 39 1010.3
20260503213214 80 217 7.0 9.0 0.00 0.00 0.00 36 1010.5
20260503212711 80 232 5.0 7.0 0.00 0.00 0.00 35 1010.6
20260503212209 80 233 8.0 9.0 0.00 0.00 0.00 39 1010.6
20260503211706 80 253 6.0 7.0 0.00 0.00 0.00 35 1010.6
20260503211201 80 240 7.0 9.0 0.00 0.00 0.00 37 1010.9
20260503210657 80 224 7.0 9.0 0.00 0.00 0.00 38 1010.8
20260503210154 80 211 5.0 6.0 0.00 0.00 0.00 36 1011.0
20260503205650 80 267 11.0 11.0 0.00 0.00 0.00 39 1010.9
20260503205147 80 235 6.0 8.0 0.00 0.00 0.00 40 1010.9
20260503204643 80 224 5.0 6.0 0.00 0.00 0.00 35 1011.1
20260503204141 80 204 4.0 5.0 0.00 0.00 0.00 44 1011.3
20260503203638 80 216 5.0 7.0 0.00 0.00 0.00 38 1011.3
20260503203136 80 236 7.0 8.0 0.00 0.00 0.00 35 1011.4
20260503202632 80 174 7.0 10.0 0.00 0.00 0.00 38 1011.4
20260503202131 80 220 9.0 11.0 0.00 0.00 0.00 37 1011.4
20260503201628 80 230 7.0 8.0 0.00 0.00 0.00 42 1011.7
20260503201125 79 220 6.0 8.0 0.00 0.00 0.00 38 1011.7
20260503200621 79 193 5.0 6.0 0.00 0.00 0.00 43 1011.7
20260503200118 79 204 5.0 7.0 0.00 0.00 0.00 39 1011.9
20260503195610 78 237 6.0 7.0 0.00 0.00 0.00 40 1012.2
20260503195106 78 222 5.0 7.0 0.00 0.00 0.00 38 1012.3
20260503194603 78 183 10.0 11.0 0.00 0.00 0.00 41 1012.2
20260503194058 78 194 11.0 13.0 0.00 0.00 0.00 38 1012.4
20260503193555 79 225 4.0 6.0 0.00 0.00 0.00 44 1012.3
20260503193050 78 222 6.0 7.0 0.00 0.00 0.00 43 1012.6
20260503192546 78 206 8.0 9.0 0.00 0.00 0.00 40 1012.7
20260503192042 78 180 7.0 9.0 0.00 0.00 0.00 46 1012.7
20260503191539 78 262 5.0 7.0 0.00 0.00 0.00 46 1012.7
20260503191036 78 217 6.0 7.0 0.00 0.00 0.00 45 1013.1
20260503190533 78 252 7.0 8.0 0.00 0.00 0.00 43 1013.2
20260503190030 78 196 7.0 8.0 0.00 0.00 0.00 42 1013.2
20260503185527 77 229 6.0 7.0 0.00 0.00 0.00 43 1013.1
20260503185026 77 183 8.0 9.0 0.00 0.00 0.00 45 1013.4
20260503184523 77 192 5.0 7.0 0.00 0.00 0.00 46 1013.4
20260503184020 77 203 7.0 8.0 0.00 0.00 0.00 46 1013.5
20260503183516 76 192 7.0 9.0 0.00 0.00 0.00 48 1013.6
20260503183013 76 259 9.0 13.0 0.00 0.00 0.00 44 1013.7
20260503182512 76 217 5.0 6.0 0.00 0.00 0.00 45 1013.8
20260503182009 76 144 6.0 7.0 0.00 0.00 0.00 48 1014.0
20260503181506 75 225 6.0 7.0 0.00 0.00 0.00 45 1013.8
20260503181002 75 197 6.0 6.0 0.00 0.00 0.00 46 1014.0
20260503180500 75 223 8.0 10.0 0.00 0.00 0.00 46 1014.2
20260503175956 75 231 7.0 8.0 0.00 0.00 0.00 46 1014.5
20260503175455 74 226 5.0 6.0 0.00 0.00 0.00 50 1014.7
20260503174950 74 243 9.0 10.0 0.00 0.00 0.00 45 1014.6
20260503174449 74 206 13.0 16.0 0.00 0.00 0.00 43 1014.8
20260503173944 74 233 6.0 7.0 0.00 0.00 0.00 46 1014.9
20260503173440 74 230 4.0 5.0 0.00 0.00 0.00 46 1015.0
20260503172937 74 216 5.0 6.0 0.00 0.00 0.00 47 1015.0
20260503172435 74 233 6.0 7.0 0.00 0.00 0.00 45 1015.0
20260503171931 73 222 7.0 9.0 0.00 0.00 0.00 44 1015.1
20260503171428 73 202 7.0 8.0 0.00 0.00 0.00 45 1015.2
20260503170925 73 187 7.0 9.0 0.00 0.00 0.00 43 1015.1
20260503170421 72 199 9.0 10.0 0.00 0.00 0.00 44 1015.3
20260503150814 65 180 3.0 3.0 0.00 0.00 0.00 52 1017.4
20260503150309 64 198 5.0 5.0 0.00 0.00 0.00 52 1017.9
20260503140234 59 194 7.0 8.0 0.00 0.00 0.00 59 1018.5
20260503131204 53 156 4.0 5.0 0.00 0.00 0.00 69 1018.5
20260503130701 52 197 3.0 3.0 0.00 0.00 0.00 69 1018.7
20260503130158 52 199 2.0 2.0 0.00 0.00 0.00 72 1018.8
20260503120124 42 65 1.0 1.0 0.00 0.00 0.00 96 1019.0
20260503110551 41 27 0.0 0.0 0.00 0.00 0.00 96 1018.9
20260503090438 42 140 0.0 0.0 0.00 0.00 0.00 97 1019.4
20260503081405 43 126 0.0 0.0 0.00 0.00 0.00 97 1019.4
20260503080902 43 128 0.0 0.0 0.00 0.00 0.00 97 1019.5
20260503080358 43 100 1.0 1.0 0.00 0.00 0.00 97 1019.3
20260503072835 44 117 1.0 1.0 0.00 0.00 0.00 96 1019.6
20260503072332 44 90 0.0 0.0 0.00 0.00 0.00 96 1019.7
20260503071828 44 111 0.0 0.0 0.00 0.00 0.00 96 1019.7
20260503071325 44 142 0.0 0.0 0.00 0.00 0.00 96 1019.6
20260503070821 44 176 0.0 0.0 0.00 0.00 0.00 96 1019.7
20260503070320 44 121 0.0 0.0 0.00 0.00 0.00 96 1020.0
20260503060233 45 155 0.0 0.0 0.00 0.00 0.00 95 1020.3
20260503054720 45 164 0.0 0.0 0.00 0.00 0.00 95 1020.7
20260503054217 45 156 0.0 0.0 0.00 0.00 0.00 94 1020.5
20260503053715 45 139 0.0 0.0 0.00 0.00 0.00 94 1020.6
20260503053213 45 119 0.0 0.0 0.00 0.00 0.00 94 1020.6
20260503052709 45 156 0.0 0.0 0.00 0.00 0.00 94 1020.7
20260503052206 45 200 0.0 0.0 0.00 0.00 0.00 94 1020.6
20260503051701 45 289 1.0 1.0 0.00 0.00 0.00 94 1020.7
20260503051159 45 276 1.0 1.0 0.00 0.00 0.00 93 1020.6
20260503050655 45 229 1.0 1.0 0.00 0.00 0.00 93 1020.5
20260503050152 46 174 0.0 0.0 0.00 0.00 0.00 93 1020.5
20260503045649 45 114 1.0 1.0 0.00 0.00 0.00 93 1020.7
20260503045147 46 102 1.0 1.0 0.00 0.00 0.00 92 1020.5
20260503044643 46 166 0.0 0.0 0.00 0.00 0.00 92 1020.7
20260503044141 46 125 1.0 1.0 0.00 0.00 0.00 92 1020.6
20260503043637 46 153 0.0 0.0 0.00 0.00 0.00 91 1020.6
20260503043134 46 165 0.0 0.0 0.00 0.00 0.00 91 1020.8
20260503042631 47 126 1.0 1.0 0.00 0.00 0.00 91 1020.6
20260503042127 47 139 1.0 1.0 0.00 0.00 0.00 91 1020.5
20260503041623 47 164 0.0 0.0 0.00 0.00 0.00 90 1020.5
20260503041121 47 148 0.0 1.0 0.00 0.00 0.00 90 1020.5
20260503040618 47 122 1.0 1.0 0.00 0.00 0.00 89 1020.6
20260503040116 47 106 1.0 1.0 0.00 0.00 0.00 88 1020.7
20260503035612 47 138 1.0 1.0 0.00 0.00 0.00 88 1020.7
20260503035110 47 164 0.0 0.0 0.00 0.00 0.00 87 1020.6
20260503034607 48 126 1.0 1.0 0.00 0.00 0.00 87 1020.7
20260503034104 47 159 0.0 0.0 0.00 0.00 0.00 86 1020.7
20260503033601 48 150 1.0 1.0 0.00 0.00 0.00 86 1020.8
20260503033059 48 135 1.0 1.0 0.00 0.00 0.00 86 1020.8
20260503032557 48 142 1.0 1.0 0.00 0.00 0.00 86 1020.8
20260503032055 48 139 1.0 1.0 0.00 0.00 0.00 85 1020.7
20260503031552 48 132 1.0 1.0 0.00 0.00 0.00 85 1020.7
20260503031050 49 145 1.0 1.0 0.00 0.00 0.00 84 1020.9
20260503030545 49 151 0.0 0.0 0.00 0.00 0.00 83 1020.9
20260503030043 49 84 1.0 1.0 0.00 0.00 0.00 82 1020.7
20260503025539 49 106 1.0 1.0 0.00 0.00 0.00 80 1020.5
20260503025037 49 163 0.0 0.0 0.00 0.00 0.00 80 1020.5
20260503024533 50 114 1.0 1.0 0.00 0.00 0.00 79 1020.5
20260503024031 50 65 1.0 1.0 0.00 0.00 0.00 77 1020.6
20260503023527 50 120 1.0 1.0 0.00 0.00 0.00 75 1020.3
20260503023025 50 155 0.0 0.0 0.00 0.00 0.00 74 1020.6
20260503022521 50 163 0.0 0.0 0.00 0.00 0.00 74 1020.1
20260503022015 50 56 0.0 0.0 0.00 0.00 0.00 73 1020.2
20260503021512 50 66 0.0 0.0 0.00 0.00 0.00 70 1020.2
20260503021009 50 70 0.0 0.0 0.00 0.00 0.00 69 1020.0
20260503020507 51 94 0.0 0.0 0.00 0.00 0.00 68 1020.0